Regional Weather Roundup
Issued by NWS Charleston, SC

Current Version | Previous Version | Text Only | Print | Product List | Glossary Off
Versions: 1 2 3 4 5 6 7 8 9 10 11 12 13 14 15 16 17 18 19 20 21 22 23 24 25 26 27 28 29 30 31 32 33 34 35 36 37 38 39 40 41 42 43 44 45 46 47 48 49 50
000 ASUS42 KCHS 171412 RWRCHS REGIONAL WEATHER ROUNDUP NATIONAL WEATHER SERVICE CHARLESTON SC 1000 AM EDT THU AUG 17 2017 NOTE: "FAIR" INDICATES FEW OR NO CLOUDS BELOW 12,000 FEET WITH NO SIGNIFICANT WEATHER AND/OR OBSTRUCTIONS TO VISIBILITY. NOT ALL STATIONS ARE QUALITY CONTROLLED. USE DATA WITH CAUTION... ESPECIALLY DEWPOINT OBSERVATIONS. SCZ027-030-031-034>040-042>050-171500- ...SOUTHEAST SOUTH CAROLINA... CITY SKY/WX TMP DP RH WIND PRES REMARKS N CHARLESTON MOSUNNY 89 42 19 W5 30.04S WATERFRONT PRK N/A N/A N/A N/A VRB3 29.88R JOHNS ISLAND FAIR 91 81 70 CALM 30.05R HX 110 PINOPOLIS N/A 84 81 89 VRB3 29.97S HX 98 MONCKS CORNER FAIR 86 79 79 CALM 30.04S HX 99 SUMMERVILLE FAIR 88 77 70 W3 30.05S HX 100 BEAUFORT MCAS SUNNY 89 79 72 CALM 30.05S HX 104 BEAUFORT ARPT FAIR 88 77 70 W3 30.05S HX 100 HILTON HEAD IS NOT AVBL WALTERBORO SUNNY 86 77 74 CALM 30.06S HX 97 ALLENDALE NOT AVBL ...SOUTHERN MIDLANDS AND PEE DEE... CITY SKY/WX TMP DP RH WIND PRES REMARKS GEORGETOWN FAIR 86 81 84 CALM 30.04S HX 102 KINGSTREE FAIR 88 77 70 CALM 30.04R HX 100 ORANGEBURG SUNNY 87 76 69 CALM 30.05S HX 97 BARNWELL FAIR 90 79 70 W5 30.06S HX 105 AIKEN FAIR 86 75 70 W5 30.11R HX 95 MANNING FAIR 88 77 70 NW10 30.04S HX 100 COLUMBIA MOSUNNY 90 75 61 SW5 30.04S HX 100 SUMTER SUNNY 90 74 59 NW5 30.02R HX 98 FLORENCE SUNNY 86 80 82 W5 30.04S HX 101 MYRTLE BEACH SUNNY 88 81 79 CALM 30.04S HX 105 N MYRTLE BEACH MOSUNNY 85 80 85 SE6 30.03S HX 99 $$ GAZ063-065-086>088-099>101-113>116-118-119-134>141-150-171500- ...SOUTHEAST GEORGIA... CITY SKY/WX TMP DP RH WIND PRES REMARKS SAVANNAH ARPT MOSUNNY 89 77 67 VRB3 30.06S HX 101 HUNTER AAF SUNNY 88 77 70 W5 30.04R HX 101 FORT STEWART SUNNY 89 75 63 W6 30.05S HX 98 STATESBORO MOSUNNY 88 73 62 NW3 30.08R HX 95 SYLVANIA SUNNY 88 80 77 NW5 30.08S HX 103 CLAXTON FAIR 89 78 71 CALM 30.07S HX 103 ...CSRA...CENTRAL AND FAR SOUTHEAST GEORGIA... CITY SKY/WX TMP DP RH WIND PRES REMARKS THOMSON SUNNY 85 75 71 N5 30.13S HX 94 AUGUSTA-BUSH SUNNY 90 76 63 VRB3 30.06R HX 101 AUGUSTA-DANIEL SUNNY 88 73 61 NW6 30.08R HX 95 SWAINSBORO PTSUNNY 86 77 74 W5 30.10R HX 97 VIDALIA SUNNY 88 77 70 CALM 30.09S HX 100 EASTMAN FAIR 88 67 50 NW6 30.12S HX 91 HAZLEHURST FAIR 88 67 49 SW3 30.09S HX 91 ALMA SUNNY 88 76 67 W6 30.09S HX 99 WAYCROSS SUNNY 87 75 66 N3 30.09S HX 96 JESUP FAIR 90 75 62 CALM 30.08S HX 100 BAXLEY FAIR 86 77 74 W6 30.08F HX 97 BRUNSWICK SUNNY 88 73 62 NW3 30.08S HX 96 SAINT SIMONS SUNNY 89 77 67 W6 30.07R HX 101 $$ SCZ027-028-034-036>038-045-046-048>050-GAZ119-141-171500- ...LAKE AND SUPPLEMENTAL COASTAL OBSERVATIONS... STATION/POSITION TIME TEMP WIND PRES WAVE SWELL AIR SEA DIR/SP/G HT/PER HT/PER/DIR (UTC) (F) (DEG/KT/KT) (MB) (FT/S) (FT/S/D) WINYAH BAY 1245 84 250/ 3 1017.0 LAKE MURRAY 1320 84 210/ 5/ 6 1016.3 ACE BASIN NERRS 1245 85 250/ 1 1017.0 FORT PULASKI 1348 86 85 310/ 5/ 6 1018.3R SAPELO ISLAND 1300 85 CALM 1018.0 $$ ANZ835-935-AMZ111-154-330-350-352-354-370-450-454-472-171500- ...C-MAN AND BUOY OBSERVATIONS... STATION/POSITION TIME TEMP WIND PRES WAVE SWELL AIR SEA DIR/SP/G HT/PER HT/PER/DIR (UTC) (F) (DEG/KT/KT) (MB) (FT/S) (FT/S/D) BUOY 41004 1350 84 85 260/ 6/ 8 1017.2R 2/ 5 2/220/ 5 BUOY 41008 1350 85 85 270/ 8/ 10 1017.8R 1/ 8 2/ 80/ 8 FOLLY BEACH CMAN 1400 89 300/ 1/ 4 1018.0R CAPERS NEARSHORE 1308 85 85 270/ 6/ 10 1016.9R FRIPP NEARSHORE 1308 86 270/ 6/ 8 1017.3R STATION/POSITION TIME TEMP WIND PRES WAVE SWELL AIR SEA DIR/SP/G HT/PER HT/PER/DIR (UTC) (F) (DEG/KT/KT) (MB) (FT/S) (FT/S/D) 5E ST. MARYS GA 1330 84 N/A 1/10 FRYING PAN BUOY 1350 84 84 170/ 6/ 6 1017.1R 2/ 7 2/110/ 7 BUOY 41025 1350 79 82 20/ 6/ 8 1017.9R 2/ 8 2/ 90/ 8 CAPE LOOKOUT NC 1400 81 80/ 5/ 6 1017.5R BUOY 41002 1250 81 84 220/ 6/ 8 1017.8 3/ 5 3/220/ 5 BUOY 41010 1350 85 86 240/ 10/ 12 1018.8F 2/ 9 2/ 60/ 9 ST AUGUSTINE FL 1400 85 81 260/ 5/ 6 1019.1R $$

USA.gov is the U.S. government's official web portal to all federal, state and local government web resources and services.